Douglas, WY

8:02 PM MDT on July 25, 2017 (GMT -0600)
Converse County

Weather History for KDGW - March, 2013

Change the Weather History Date:

Thursday, March 28, 2013

  Actual Average Record
Temperature  
Mean Temperature 44 °F 39 °F  
Max Temperature 63 °F 53 °F 78 °F (2015)
Min Temperature 24 °F 25 °F 13 °F (2003)
Degree Days  
Heating Degree Days 21 26  
Month to date heating degree days 850 840  
Since 1 July heating degree days 5881 6240  
Cooling Degree Days 0 0  
Month to date cooling degree days 0 0  
Year to date cooling degree days 0 0  
Moisture  
Dew Point 20 °F    
Average Humidity 52    
Maximum Humidity 88    
Minimum Humidity 16    
Precipitation  
Precipitation 0.00 in 0.03 in 0.06 in (2017)
Month to date precipitation 0.09 0.75  
Year to date precipitation 0.58 1.54  
Sea Level Pressure  
Sea Level Pressure 30.06 in    
Wind  
Wind Speed 7 mph (NW)    
Max Wind Speed 22 mph    
Max Gust Speed 28 mph    
Visibility 10 miles    
Events      
T = Trace of Precipitation, MM = Missing Value Source: NWS Daily Summary

Daily Weather History Graph

Daily Weather History Graph

Search for Another Location

Airport or City:

Trip Planner

Search our weather history database for the weather conditions in past years. The results will help you decide how hot, cold, wet, or windy it might be!

Date:

Astronomy

Mar. 28, 2013 Rise Set
Actual Time 6:50 AM MDT 7:23 PM MDT
Civil Twilight 6:21 AM MDT 7:51 PM MDT
Nautical Twilight 5:48 AM MDT 8:25 PM MDT
Astronomical Twilight 5:13 AM MDT 9:00 PM MDT
Moon 9:22 PM MDT (3/28) 7:17 AM MDT (3/28)
Length of Visible Light 13h 30m
Length of Day
12h 33m
Full, 98% of the Moon is Illuminated
Mar 28
Full
Apr 2
Last Quarter
Apr 10
New
Apr 18
First Quarter
Apr 25
Full

Hourly Weather History & Observations

Time (MDT) Temp. Windchill Dew Point Humidity Pressure Visibility Wind Dir Wind Speed Gust Speed Precip Events Conditions
12:53 AM 30.0 °F - 23.0 °F 75% 30.01 in 10.0 mi Calm Calm - N/A   Clear
1:53 AM 28.0 °F 24.2 °F 21.9 °F 78% 30.04 in 10.0 mi NNW 3.5 mph - N/A   Clear
2:53 AM 28.9 °F 21.9 °F 23.0 °F 78% 30.03 in 10.0 mi NNW 6.9 mph - N/A   Clear
3:53 AM 28.0 °F 21.7 °F 23.0 °F 81% 30.03 in 10.0 mi NNW 5.8 mph - N/A   Clear
4:53 AM 27.0 °F 20.5 °F 21.9 °F 81% 30.03 in 10.0 mi NW 5.8 mph - N/A   Clear
5:53 AM 24.1 °F 17.0 °F 21.0 °F 88% 30.06 in 10.0 mi North 5.8 mph - N/A   Clear
6:53 AM 28.0 °F 20.0 °F 23.0 °F 81% 30.07 in 10.0 mi North 8.1 mph - N/A   Clear
7:53 AM 33.1 °F 26.9 °F 26.1 °F 75% 30.09 in 10.0 mi NW 6.9 mph - N/A   Clear
8:53 AM 39.9 °F 35.1 °F 27.0 °F 60% 30.09 in 10.0 mi NNW 6.9 mph - N/A   Clear
9:53 AM 51.1 °F - 24.1 °F 35% 30.06 in 10.0 mi WNW 16.1 mph - N/A   Clear
10:53 AM 54.0 °F - 23.0 °F 30% 30.06 in 10.0 mi WNW 13.8 mph - N/A   Clear
11:53 AM 55.0 °F - 21.9 °F 28% 30.08 in 10.0 mi WNW 10.4 mph 18.4 mph N/A   Clear
12:53 PM 57.9 °F - 19.9 °F 23% 30.07 in 10.0 mi WNW 11.5 mph 21.9 mph N/A   Clear
1:53 PM 60.1 °F - 19.9 °F 21% 30.06 in 10.0 mi NW 10.4 mph 16.1 mph N/A   Scattered Clouds
2:53 PM 63.0 °F - 18.0 °F 18% 30.03 in 10.0 mi West 13.8 mph 20.7 mph N/A   Partly Cloudy
3:53 PM 62.1 °F - 16.0 °F 17% 30.03 in 10.0 mi West 18.4 mph 27.6 mph N/A   Partly Cloudy
4:53 PM 61.0 °F - 17.1 °F 18% 30.03 in 10.0 mi NNW 6.9 mph - N/A   Partly Cloudy
5:53 PM 60.1 °F - 17.1 °F 19% 30.05 in 10.0 mi NW 8.1 mph - N/A   Partly Cloudy
6:53 PM 57.0 °F - 17.1 °F 21% 30.05 in 10.0 mi NW 5.8 mph - N/A   Clear
7:53 PM 46.0 °F 42.5 °F 15.1 °F 29% 30.08 in 10.0 mi NE 6.9 mph - N/A   Clear
8:53 PM 39.9 °F - 17.1 °F 40% 30.09 in 10.0 mi Calm Calm - N/A   Clear
9:53 PM 37.9 °F - 18.0 °F 45% 30.07 in 10.0 mi Calm Calm - N/A   Clear
10:53 PM 34.0 °F - 17.1 °F 50% 30.08 in 10.0 mi Calm Calm - N/A   Clear
11:53 PM 36.0 °F - 19.0 °F 50% 30.07 in 10.0 mi Calm Calm - N/A   Overcast